Regional Weather Roundup
Issued by NWS Sioux Falls, SD

Home | Current Version | Previous Version | Graphics & Text | Print | Product List | Glossary On
Versions: 1 2 3 4 5 6 7 8 9 10 11 12 13 14 15 16 17 18 19 20 21 22 23 24 25 26 27 28 29 30 31 32 33 34 35 36 37 38 39 40 41 42 43 44 45 46 47 48 49 50
000
ASUS43 KFSD 180610
RWRFSD

WEATHER ROUNDUP FOR SE SOUTH DAKOTA/SW MINNESOTA/NW IOWA
NATIONAL WEATHER SERVICE SIOUX FALLS SD
100 AM CDT FRI AUG 18 2017

NOTE: "FAIR" INDICATES FEW OR NO CLOUDS BELOW 12,000 FEET WITH NO
SIGNIFICANT WEATHER AND OR OBSTRUCTIONS TO VISIBILITY.


SDZ038>040-050-052>070-180700-
SOUTHEAST SOUTH DAKOTA

CITY           SKY/WX    TMP DP  RH WIND       PRES   REMARKS
BROOKINGS      LGT RAIN  63  57  81 SW8       29.94F
CHAMBERLAIN    CLOUDY    65  63  92 SE10      29.92F
6HR MIN TEMP:  65; 6HR MAX TEMP:  79;

HURON          CLOUDY    64  57  78 SE10      29.87F
6HR MIN TEMP:  62; 6HR MAX TEMP:  77; 6HR PCP:  0.09;

MADISON        LGT RAIN  61  61 100 CALM      29.96F
MITCHELL       LGT RAIN  65  62  90 S8        29.95R
6HR MIN TEMP:  65; 6HR MAX TEMP:  78; 6HR PCP:  0.02;

SIOUX FALLS    CLOUDY    67  61  81 N10       29.95R
6HR MIN TEMP:  62; 6HR MAX TEMP:  78; 6HR PCP: TRACE;

WINNER         FAIR      65  60  84 S7        29.92R
YANKTON        CLOUDY    70  61  73 NW12      29.96R
$$

MNZ071-072-080-081-089-090-097-098-180700-
SOUTHWEST MINNESOTA

CITY           SKY/WX    TMP DP  RH WIND       PRES   REMARKS
FAIRMONT       CLEAR     61  59  93 W3        29.90S
JACKSON        CLEAR     57  55  94 CALM      29.91F
LUVERNE        CLOUDY    63  59  88 NW6       29.97R
MARSHALL       MOCLDY    61  57  87 W10       29.93R
6HR MIN TEMP:  58; 6HR MAX TEMP:  73; 6HR PCP:  0.06;

MONTEVIDEO     PTCLDY    63  61  94 CALM      29.89F
PIPESTONE      CLOUDY    66  59  77 NW8       29.96R
REDWOOD FALLS  CLEAR     63  59  87 W3        29.89R
TRACY          CLOUDY    63  60  89 CALM      29.90F
WINDOM         CLEAR     57  55  94 CALM      29.91F
WORTHINGTON    CLOUDY    59  56  89 CALM      29.92F
$$

IAZ001>003-012>014-020>022-031-032-NEZ013-014-SDZ071-180700-
NORTHWEST IOWA

CITY           SKY/WX    TMP DP  RH WIND       PRES   REMARKS
CHEROKEE       CLEAR     59  59 100 CALM      29.92S
DENISON        PTCLDY    59  59 100 CALM      29.95R FOG
ESTHERVILLE    CLEAR     56  56 100 W3        29.90F
LE MARS        PTCLDY    59  59 100 CALM      29.90F
ORANGE CITY    PTCLDY    66  63  88 CALM      29.91F
SHELDON        CLOUDY    59  57  94 E5        29.90S
SIOUX CITY     CLEAR     61  61 100 SE5       29.91S
6HR MIN TEMP:  60; 6HR MAX TEMP:  80;

SPENCER        FOG       57  56  96 CALM      29.91F VSB 3/4
6HR MIN TEMP:  57; 6HR MAX TEMP:  77;

STORM LAKE     CLEAR     63  59  88 W5        29.93S
$$

ABBREVIATIONS USED IN REMARKS
   TC - TEMPERATURE IN CELSIUS
  WCI - WIND CHILL INDEX
   HX - HEAT INDEX
  VSB - VISIBILITY




USA.gov is the U.S. government's official web portal to all federal, state and local government web resources and services.